Location: Eschertshofen
(49.3064°N, 11.5756°E)
Time: 17:28:09
(UTC+00:00)

Okean-O - Pass Details

Date: 18 September 2020
Orbit: 638 x 641 km, 98.2° (Epoch: 31 October)

Event Time Altitude Azimuth Distance (km) Brightness Sun altitude
Rises 18:06:26 0° 184° (S) 2,934 5.9 -8.4°
Reaches altitude 10° 18:08:44 10° 191° (SSW) 2,030 5.2 -8.8°
Maximum altitude 18:12:54 40° 262° (W) 946 4.1 -9.4°
Drops below altitude 10° 18:17:07 10° 332° (NNW) 2,046 5.9 -10.1°
Sets 18:19:27 0° 340° (NNW) 2,961 6.6 -10.5°
